Location: *
(38.9800°N, 16.0500°E)
Time: 05:43:55
(UTC+00:00)

CZ-4B R/B - Pass Details

Date: 07 April 2020
Orbit: 392 x 465 km, 97.6° (Epoch: 05 June)

Event Time Altitude Azimuth Distance (km) Brightness Sun altitude
Exits shadow 02:15:36 13° 129° (SE) 1,438 4.1 -25.2°
Maximum altitude 02:18:09 29° 72° (ENE) 881 3.4 -24.8°
Drops below altitude 10° 02:21:13 10° 11° (N) 1,627 4.7 -24.3°
Sets 02:23:26 0° 360° (N) 2,504 5.6 -23.9°
